Regional Weather Roundup
Issued by NWS

Home | Current Version | Previous Version | Graphics & Text | Print | Product List | Glossary On
Versions: 1 2 3 4 5 6 7 8 9 10 11 12 13 14 15 16 17 18 19 20 21 22 23 24 25 26 27 28 29 30 31 32 33 34 35 36 37 38 39 40 41 42 43 44 45 46 47 48 49 50
145
ASUS43 KDTX 052110
RWRMI
MICHIGAN HOURLY REGIONAL WEATHER ROUNDUP
NATIONAL WEATHER SERVICE DETROIT/PONTIAC MI
400 PM EST FRI FEB 05 2016

NOTE: "FAIR" INDICATES FEW OR NO CLOUDS BELOW 12,000 FEET WITH NO
SIGNIFICANT WEATHER AND/OR OBSTRUCTION TO VISIBILITY.

MIZ047>049-052>055-059>063-066>070-074>076-081>083-052200-
SOUTHEAST LOWER MICHIGAN

CITY           SKY/WX    TMP DP  RH WIND       PRES   REMARKS
ADRIAN         CLOUDY    41  22  46 SW12      30.28S
ALMA           LGT SNOW  32  29  90 SW6       30.28R WCI  26
ANN ARBOR      PTSUNNY   38  21  50 S12       30.26F WCI  30
BAD AXE        CLOUDY    32  28  84 SW3       30.28R
CARO           LGT SNOW  32  30  92 W3        30.27R
DETROIT CITY   CLOUDY    36  21  54 S14       30.29S WCI  27
DETROIT        MOSUNNY   39  20  46 S16       30.29F WCI  30
FLINT          CLOUDY    38  22  52 W9        30.26S WCI  31
GROSSE ILE     MOSUNNY   36  27  69 SE9       30.29S WCI  29
HILLSDALE      CLOUDY    35  22  60 SW5       30.25S WCI  31
HOWELL         CLOUDY    37  22  55 W9        30.25S WCI  30

CITY           SKY/WX    TMP DP  RH WIND       PRES   REMARKS
JACKSON        CLOUDY    37  22  54 W13       30.25S WCI  29
LAMBERTVILLE   CLOUDY    38  21  51 SW8G16    30.29S WCI  32
LANSING        CLOUDY    34  25  69 W8        30.27S WCI  27
LAPEER         CLOUDY    35  23  62 W3        30.26S
MASON          CLOUDY    35  23  62 W5        30.26S WCI  31
MONROE         CLOUDY    39  21  48 SW8       30.29S WCI  33
MT. CLEMENS    PTSUNNY   35  26  71 S12       30.27S WCI  27
PONTIAC        CLOUDY    37  20  50 S9        30.25S WCI  30
PORT HOPE        N/A     31  25  78 SW5       30.26R WCI  26
PORT HURON     CLOUDY    34  25  69 S8        30.29S WCI  27
TRI CITIES     LGT SNOW  32  28  85 SW6       30.28R FOG     WCI  26
MIDLAND        FLURRIES  32  26  80 CALM      30.27R
TROY           MOSUNNY   38  20  46 SW9G18    30.29S WCI  32
SAGINAW HB     LGT SNOW  34  30  86 CALM      30.27S
$$
MIZ043>046-050>051-056>058-064>065-071>073-077>080-052200-
SOUTHWEST LOWER MICHIGAN

CITY           SKY/WX    TMP DP  RH WIND       PRES   REMARKS
BATTLE CREEK   CLOUDY    33  25  72 SW10      30.27S WCI  25
BENTON HARBOR  CLOUDY    31  24  75 NW6       30.33R WCI  25
BIG RAPIDS     CLOUDY    30  23  77 W10       30.25R WCI  21
COLDWATER      CLOUDY    33  26  74 SW8       30.28R WCI  26
FREMONT        PTSUNNY   30  20  67 NW5       30.28R WCI  25
HOLLAND        CLOUDY    31  23  72 NW6       30.31R WCI  25
GRAND RAPIDS   LGT SNOW  32  27  81 W6        30.29R FOG     WCI  26
IONIA          LGT SNOW  31  27  84 W6        30.27R WCI  25
KALAMAZOO      FLURRIES  33  25  72 W8        30.28R WCI  26
LUDINGTON      CLOUDY    28  18  65 NW3       30.30S
MARSHALL       CLOUDY    33  25  73 W9        30.27R WCI  25
MOUNT PLEASANT CLOUDY    32  25  73 W5        30.26R WCI  28
MUSKEGON       PTSUNNY   31  20  63 NW13      30.31R WCI  21
SOUTH HAVEN    FLURRIES  31  26  81 NW6       30.32R WCI  25
$$
MIZ016>042-052200-
NORTHERN LOWER MICHIGAN

CITY           SKY/WX    TMP DP  RH WIND       PRES   REMARKS
ALPENA         CLOUDY    29  21  72 W3        30.25S
BEAVER ISLAND  PTSUNNY   28  15  59 W9        30.25S WCI  19
BELLAIRE       CLOUDY    29  17  60 W5        30.27S WCI  24
CADILLAC       FLURRIES  28  22  78 W7        30.23R WCI  21
CHARLEVOIX     MOSUNNY   29  17  62 W8        30.29S WCI  21
FRANKFORT      CLOUDY    28  18  65 W5        30.28S WCI  23
GAYLORD        CLOUDY    27  18  69 VRB3      30.21S
GRAYLING       FLURRIES  28  20  74 W6        30.24R WCI  21
HARBOR SPRINGS SUNNY     28  15  58 W8        30.25S WCI  20
HOUGHTON LAKE  CLOUDY    28  22  78 W6        30.24R WCI  22
MANISTEE       CLOUDY    28  16  59 W10       30.29S WCI  19
OSCODA         CLOUDY    31  23  71 SW7       30.26R WCI  24
PELLSTON       MOSUNNY   26  14  60 W10       30.25S WCI  16
ROGERS CITY    MOSUNNY   29  17  61 W6        30.26R WCI  23
TRAVERSE CITY  FLURRIES  29  21  72 NW7       30.26S WCI  22
$$
MIZ007>008-015-052200-
EASTERN UPPER MICHIGAN

CITY           SKY/WX    TMP DP  RH WIND       PRES   REMARKS
KINROSS        CLOUDY    25  21  86 W8        30.22S WCI  16
MACKINAC ISLAN MOSUNNY   26  19  73 SW10G17   30.23S WCI  16
NEWBERRY       CLOUDY    25  13  61 W7        30.22S WCI  17
S. S. MARIE    FLURRIES  25  18  74 NW6       30.21F WCI  18
MUNISING         N/A     22  14  71 N7        30.25S WCI  13
$$
MIZ004>006-011>014-085-052200-
CENTRAL UPPER MICHIGAN

CITY           SKY/WX    TMP DP  RH WIND       PRES   REMARKS
MANISTIQUE     CLOUDY    29  12  50 NW6       30.24S WCI  22
ESCANABA       PTSUNNY   28  16  59 SW12      30.26S WCI  18
MENOMINEE      SUNNY     27  12  54 W8        30.28S WCI  18
SAWYER-GWINN   PTSUNNY   23  14  68 N6        30.22R WCI  16
$$
MIZ001>003-009>011-084-052200-
WESTERN UPPER MICHIGAN

CITY           SKY/WX    TMP DP  RH WIND       PRES   REMARKS
IRON MOUNTAIN  MOSUNNY   26   8  46 W5        30.21F WCI  20
HOUGHTON       CLOUDY    23  10  57 W7        30.19F WCI  15
COPPER HARBOR    N/A     26   9  48 N8        30.22F WCI  18
IRONWOOD       CLOUDY    27  10  50 S10       30.16S WCI  17
$$

ABBREVIATIONS USED IN REMARKS
   TC - TEMPERATURE IN CELSIUS
  WCI - WIND CHILL INDEX
   HX - HEAT INDEX
  VSB - VISIBILITY





USA.gov is the U.S. government's official web portal to all federal, state and local government web resources and services.